Location: ?ejeti?ky
(50.4060°N, 14.9016°E)
Time: 13:21:59
(UTC+00:00)

ISS - Pass Details

Date: 05 December 2021
Orbit: 413 x 422 km, 51.6° (Epoch: 18 January)

Event Time Altitude Azimuth Distance (km) Brightness Sun altitude
Rises 16:02:51 0° 286° (WNW) 2,387 1.0 -9.8°
Reaches altitude 10° 16:04:59 10° 283° (WNW) 1,518 -0.1 -10.2°
Maximum altitude 16:08:22 65° 201° (SSW) 471 -3.3 -10.7°
Drops below altitude 10° 16:11:43 10° 120° (ESE) 1,506 -1.3 -11.1°
Enters shadow 16:12:16 - 119° (ESE) 1,733 -1.0 -11.2°
